Location: Unspecified
(43.4354°N, 0.0000°E)
Time: 18:29:54
(UTC+00:00)

Courier 1B - Pass Details

Date: 25 June 2019
Orbit: 962 x 1209 km, 28.3° (Epoch: 20 August)

Event Time Altitude Azimuth Distance (km) Brightness Sun altitude
Rises 15:48:32 0° 203° (SSW) 3,696 10.8 39.9°
Reaches altitude 10° 15:54:03 10° 166° (SSE) 2,812 9.9 38.9°
Maximum altitude 15:55:18 11° 155° (SSE) 2,789 9.8 38.6°
Drops below altitude 10° 15:56:35 10° 144° (SE) 2,846 9.8 38.4°
Sets 16:02:20 0° 108° (ESE) 3,883 10.2 37.4°
